• In Hungary
  • List of Countries
  • For 7 days
  • Water Temperature
  • Satellite Maps
  • Weather Map
  • News
  • Weather Widgets
  • user-avatar
    Login

    Hourly Weather Wladikavkaz

    Today, 21 June, Thursday

    Time Temperature Precipitation Wind Pressure Humidity
    00:00 +17°C° 0 mm 2 mps 705 mmHg 66%
    01:00 +17°C° 0 mm 2 mps 704 mmHg 64%
    02:00 +16°C° 0 mm 2 mps 704 mmHg 62%
    03:00 +16°C° 0 mm 2 mps 704 mmHg 50%
    04:00 +17°C° 0 mm 2 mps 704 mmHg 52%
    05:00 +17°C° 0 mm 2 mps 704 mmHg 54%
    06:00 +18°C° 0 mm 2 mps 704 mmHg 56%
    07:00 +20°C° 0 mm 2 mps 705 mmHg 49%
    08:00 +24°C° 0 mm 1 mps 705 mmHg 43%
    09:00 +26°C° 0 mm 1 mps 705 mmHg 35%
    10:00 +27°C° 0 mm 1 mps 705 mmHg 35%
    11:00 +28°C° 0 mm 1 mps 705 mmHg 34%
    12:00 +29°C° 0 mm 1 mps 704 mmHg 33%
    13:00 +29°C° 0 mm 2 mps 704 mmHg 35%
    14:00 +29°C° 0 mm 2 mps 704 mmHg 36%
    15:00 +29°C° 0 mm 1 mps 704 mmHg 38%
    16:00 +28°C° 0 mm 1 mps 704 mmHg 44%
    17:00 +27°C° 0 mm 1 mps 704 mmHg 50%
    18:00 +26°C° 0 mm 1 mps 704 mmHg 56%
    19:00 +24°C° 0 mm 1 mps 704 mmHg 57%
    20:00 +21°C° 0 mm 2 mps 704 mmHg 58%
    21:00 +19°C° 0 mm 2 mps 704 mmHg 58%
    22:00 +19°C° 0 mm 2 mps 703 mmHg 59%
    23:00 +19°C° 0 mm 2 mps 703 mmHg 59%

    Tomorrow, 22 June, Friday

    Time Temperature Precipitation Wind Pressure Humidity
    00:00 +19°C° 0 mm 2 mps 703 mmHg 59%
    01:00 +18°C° 0 mm 2 mps 703 mmHg 60%
    02:00 +18°C° 0 mm 2 mps 703 mmHg 61%
    03:00 +18°C° 0 mm 2 mps 703 mmHg 62%
    04:00 +20°C° 0 mm 1 mps 703 mmHg 64%
    05:00 +20°C° 0 mm 1 mps 703 mmHg 66%
    06:00 +21°C° 0 mm 1 mps 703 mmHg 69%
    07:00 +23°C° 0 mm 1 mps 703 mmHg 62%
    08:00 +25°C° 0 mm 2 mps 703 mmHg 55%
    09:00 +27°C° 0 mm 2 mps 703 mmHg 48%
    10:00 +28°C° 0 mm 2 mps 703 mmHg 47%
    11:00 +28°C° 0 mm 2 mps 703 mmHg 46%
    12:00 +29°C° 0 mm 2 mps 703 mmHg 45%
    13:00 +29°C° 0.1 mm 2 mps 702 mmHg 46%
    14:00 +29°C° 0.1 mm 2 mps 702 mmHg 46%
    15:00 +30°C° 0.1 mm 2 mps 702 mmHg 47%
    16:00 +29°C° 0.4 mm 2 mps 702 mmHg 52%
    17:00 +28°C° 0.4 mm 1 mps 701 mmHg 57%
    18:00 +27°C° 0.4 mm 1 mps 701 mmHg 63%
    19:00 +25°C° 0.4 mm 1 mps 701 mmHg 64%
    20:00 +24°C° 0.4 mm 1 mps 702 mmHg 66%
    21:00 +21°C° 0.4 mm 2 mps 702 mmHg 68%
    22:00 +21°C° 0.1 mm 1 mps 701 mmHg 69%
    23:00 +21°C° 0.1 mm 1 mps 701 mmHg 70%

    Day after tomorrow, 23 June, Saturday

    Time Temperature Precipitation Wind Pressure Humidity
    00:00 +20°C° 0.1 mm 1 mps 701 mmHg 71%
    01:00 +20°C° 0 mm 1 mps 701 mmHg 69%
    02:00 +20°C° 0 mm 1 mps 701 mmHg 68%
    03:00 +20°C° 0 mm 1 mps 701 mmHg 67%
    04:00 +20°C° 0 mm 1 mps 701 mmHg 67%
    05:00 +21°C° 0 mm 1 mps 701 mmHg 67%
    06:00 +21°C° 0 mm 1 mps 701 mmHg 68%
    07:00 +23°C° 0.1 mm 1 mps 701 mmHg 66%
    08:00 +24°C° 0.1 mm 1 mps 701 mmHg 65%
    09:00 +25°C° 0.1 mm 1 mps 701 mmHg 64%
    10:00 +25°C° 0.2 mm 1 mps 701 mmHg 65%
    11:00 +26°C° 0.2 mm 2 mps 701 mmHg 66%
    12:00 +26°C° 0.2 mm 2 mps 701 mmHg 67%
    13:00 +27°C° 0.4 mm 2 mps 701 mmHg 63%
    14:00 +27°C° 0.4 mm 2 mps 701 mmHg 60%
    15:00 +28°C° 0.4 mm 2 mps 701 mmHg 56%
    16:00 +27°C° 0.3 mm 2 mps 701 mmHg 60%
    17:00 +27°C° 0.3 mm 2 mps 701 mmHg 64%
    18:00 +26°C° 0.3 mm 2 mps 701 mmHg 67%
    19:00 +24°C° 0.2 mm 1 mps 701 mmHg 70%
    20:00 +23°C° 0.2 mm 1 mps 702 mmHg 73%
    21:00 +21°C° 0.2 mm 1 mps 702 mmHg 76%
    22:00 +21°C° 0 mm 1 mps 702 mmHg 75%
    23:00 +21°C° 0 mm 1 mps 702 mmHg 74%

    24 June, Sunday

    Time Temperature Precipitation Wind Pressure Humidity
    00:00 +20°C° 0 mm 1 mps 702 mmHg 73%
    01:00 +20°C° 0 mm 1 mps 702 mmHg 73%
    02:00 +20°C° 0 mm 1 mps 702 mmHg 72%
    03:00 +19°C° 0 mm 1 mps 702 mmHg 71%
    04:00 +20°C° 0 mm 1 mps 702 mmHg 71%
    05:00 +21°C° 0 mm 1 mps 702 mmHg 71%
    06:00 +22°C° 0 mm 1 mps 702 mmHg 71%
    07:00 +23°C° 0 mm 1 mps 703 mmHg 68%
    08:00 +24°C° 0 mm 2 mps 703 mmHg 64%
    09:00 +26°C° 0 mm 2 mps 703 mmHg 60%
    10:00 +27°C° 0.1 mm 2 mps 703 mmHg 60%
    11:00 +27°C° 0.1 mm 2 mps 703 mmHg 61%
    12:00 +28°C° 0.1 mm 3 mps 703 mmHg 61%
    13:00 +28°C° 1 mm 2 mps 703 mmHg 62%
    14:00 +28°C° 1 mm 2 mps 703 mmHg 63%
    15:00 +28°C° 1 mm 2 mps 703 mmHg 64%
    16:00 +27°C° 2.3 mm 2 mps 703 mmHg 70%
    17:00 +26°C° 2.3 mm 2 mps 703 mmHg 77%
    18:00 +24°C° 2.3 mm 2 mps 703 mmHg 83%
    19:00 +23°C° 0.9 mm 1 mps 703 mmHg 84%
    20:00 +22°C° 0.9 mm 1 mps 704 mmHg 85%
    21:00 +21°C° 0.9 mm 1 mps 704 mmHg 86%
    22:00 +21°C° 0.1 mm 1 mps 704 mmHg 86%
    23:00 +20°C° 0.1 mm 1 mps 704 mmHg 85%

    25 June, Monday

    Time Temperature Precipitation Wind Pressure Humidity
    00:00 +20°C° 0.1 mm 1 mps 704 mmHg 85%
    01:00 +20°C° 0 mm 1 mps 704 mmHg 83%
    02:00 +19°C° 0 mm 1 mps 704 mmHg 82%
    03:00 +19°C° 0 mm 1 mps 704 mmHg 80%
    04:00 +20°C° 0 mm 1 mps 704 mmHg 79%
    05:00 +21°C° 0 mm 1 mps 704 mmHg 78%
    06:00 +22°C° 0 mm 1 mps 704 mmHg 76%
    07:00 +24°C° 0 mm 1 mps 704 mmHg 71%
    08:00 +25°C° 0 mm 1 mps 705 mmHg 66%
    09:00 +27°C° 0 mm 2 mps 705 mmHg 61%
    10:00 +28°C° 0.1 mm 2 mps 705 mmHg 60%
    11:00 +29°C° 0.1 mm 2 mps 705 mmHg 59%
    12:00 +29°C° 0.1 mm 3 mps 704 mmHg 57%
    13:00 +30°C° 0.4 mm 3 mps 704 mmHg 57%
    14:00 +30°C° 0.4 mm 3 mps 704 mmHg 56%
    15:00 +30°C° 0.4 mm 2 mps 704 mmHg 56%
    16:00 +29°C° 0.4 mm 2 mps 704 mmHg 59%
    17:00 +29°C° 0.4 mm 2 mps 704 mmHg 62%
    18:00 +28°C° 0.4 mm 1 mps 704 mmHg 65%
    19:00 +26°C° 0.1 mm 1 mps 704 mmHg 68%
    20:00 +24°C° 0.1 mm 1 mps 704 mmHg 71%
    21:00 +23°C° 0.1 mm 1 mps 704 mmHg 74%
    22:00 +22°C° 0 mm 1 mps 704 mmHg 73%
    23:00 +22°C° 0 mm 1 mps 704 mmHg 73%

    26 June, Tuesday

    Time Temperature Precipitation Wind Pressure Humidity
    00:00 +21°C° 0 mm 1 mps 704 mmHg 72%
    01:00 +21°C° 0 mm 1 mps 703 mmHg 70%
    02:00 +21°C° 0 mm 1 mps 703 mmHg 68%
    03:00 +21°C° 0 mm 1 mps 703 mmHg 66%
    04:00 +22°C° 0 mm 1 mps 703 mmHg 66%
    05:00 +22°C° 0 mm 1 mps 703 mmHg 66%
    06:00 +23°C° 0 mm 1 mps 703 mmHg 67%
    07:00 +25°C° 0 mm 1 mps 703 mmHg 63%
    08:00 +27°C° 0 mm 2 mps 703 mmHg 58%
    09:00 +28°C° 0 mm 2 mps 703 mmHg 54%
    10:00 +29°C° 0.2 mm 2 mps 703 mmHg 53%
    11:00 +30°C° 0.2 mm 3 mps 703 mmHg 52%
    12:00 +31°C° 0.2 mm 3 mps 702 mmHg 51%
    13:00 +31°C° 0.4 mm 3 mps 702 mmHg 50%
    14:00 +33°C° 0.4 mm 3 mps 702 mmHg 49%
    15:00 +33°C° 0.4 mm 3 mps 702 mmHg 48%
    16:00 +31°C° 0.3 mm 2 mps 702 mmHg 51%
    17:00 +31°C° 0.3 mm 2 mps 702 mmHg 55%
    18:00 +30°C° 0.3 mm 1 mps 702 mmHg 59%
    19:00 +28°C° 0.1 mm 2 mps 702 mmHg 62%
    20:00 +26°C° 0.1 mm 2 mps 702 mmHg 66%
    21:00 +23°C° 0.1 mm 2 mps 702 mmHg 69%
    22:00 +23°C° 0 mm 2 mps 702 mmHg 69%
    23:00 +23°C° 0 mm 2 mps 702 mmHg 69%
    Show more